Starlink 1125

decayed
NORAD ID: 44950 Int'l Des: 2020-001 Owner: SPXS Country: US Constellation: starlink
LEOCIRCULAR
Group

About Starlink 1125

Description loading...

Altitude History

Altitude vs Time

uPlot chart will show altitude changes over time

Two-Line Element Set

1 44950U 20001AN 23190.47577317 .85300129 12688-4 11996-2 0 9996
2 44950 53.0160 321.8365 0008709 326.4973 151.6576 16.48379275194103
Epoch: Jul 9, 2023 • Age: 21318 hours

Current Status

Position data unavailable
Launch Date Jan 7, 2020
Age 5.9 years
Decay Date Jul 9, 2023
Type internet

Technical Details

Classification Payload
Mass 260.00 kg
Dry Mass 248.00 kg
Total Mass 260.00 kg
Length 0.20 m
Diameter 2.80 m
Span 9.00 m
Shape Box + pan
Manufacturer SPXS
Bus Type Starlink
Phase Status Unknown Transfer Status
Owner/State SPXS/US

Large Constellations

Loading constellations...